{"data":{"norad_id":89251,"intl_designator":"","name":"UNKNOWN","alt_names":[],"object_type":"UNKNOWN","status":"UNKNOWN","operator":null,"country":null,"launch_date":null,"launch_site_code":null,"launch_vehicle":null,"mission":null,"orbit_class":"UNKNOWN","rcs_meters":null,"size_class":null,"mass_kg":null,"dimensions":null,"purposes":[],"wikipedia_slug":null,"has_3d_model":false,"image_url":null,"decayed_at":null,"tle_current":{"epoch":"2026-09-17T14:46:01.672896Z","epoch_age_seconds":263709,"freshness":"STALE","line1":"1 89251U          26260.61529714  .00002261  00000+0  13739-2 0  9991","line2":"2 89251  62.4909 356.9399 2803738 126.8437 262.3750  9.29781562399064","mean_motion":9.29781562,"eccentricity":0.2803738,"inclination_deg":62.4909,"raan_deg":356.9399,"arg_perigee_deg":126.8437,"mean_anomaly_deg":262.375,"bstar":0.0013739,"rev_number":39906,"period_min":154.87508667116,"perigee_km":496.58047296436,"apogee_km":5853.502335513,"semimajor_km":9553.1784042387,"source":"CELESTRAK","updated_at":"2026-09-20T09:00:32.484232Z"}}}